cover

 

Get it on iTunes StoreListen on Apple Music

Space Cat

#Trackname / Key / BPM / Publish dateArtists, Remixers / Label
1 144 bpm, 12B / E major, 2018-11-26, Psy-Trance,  0  15
2 142 bpm, 9B / G major, 2018-11-12, Psy-Trance,  6  1
3 146 bpm, 10A / B minor, 2018-09-28, Psy-Trance,  0  4
4 142 bpm, 7B / F major, 2018-08-03, Psy-Trance,  0  18
5 142 bpm, 12B / E major, 2018-08-03, Psy-Trance,  0  18
6 142 bpm, 2B / F# major, 2018-06-25, Psy-Trance,  2  1
7 142 bpm, 12B / E major, 2018-03-19, Psy-Trance,  2  2
8 142 bpm, 7B / F major, 2018-03-19, Psy-Trance,  4  2
1
9 144 bpm, 6A / G minor, 2018-03-05, Psy-Trance,  1  10
10 144 bpm, 2B / F# major, 2018-02-12, Psy-Trance,  2  1
11 140 bpm, 6A / G minor, 2018-01-15, Psy-Trance,  12  1
1
12 140 bpm, 7B / F major, 2017-12-22, Psy-Trance,  2  20
13 145 bpm, 8A / A minor, 2017-07-24, Psy-Trance,  0  9
14 138 bpm, 5B / Eb major, 2017-06-12, Psy-Trance,  1  8
15 142 bpm, 12B / E major, 2017-05-08, Psy-Trance,  1  19
16 145 bpm, 2A / Eb minor, 2017-03-20, Psy-Trance,  0  9
17 140 bpm, 7B / F major, 2017-03-10, Psy-Trance,  3  1
18 144 bpm, 6A / G minor, 2017-01-30, Psy-Trance,  3  1
19 142 bpm, 11B / A major, 2016-11-07, Psy-Trance,  1  2
20 142 bpm, 11A / F# minor, 2016-11-07, Psy-Trance,  9  2
21 140 bpm, 5B / Eb major, 2016-10-14, Psy-Trance,  0  18
22 140 bpm, 7B / F major, 2016-09-30, Psy-Trance,  0  18
23 142 bpm, 1A / Ab minor, 2016-08-05, Psy-Trance,  0  18
24 142 bpm, 1B / B major, 2016-07-22, Psy-Trance,  1  18
25 140 bpm, 7B / F major, 2016-06-20, Psy-Trance,  5  2
26 140 bpm, 5B / Eb major, 2016-06-20, Psy-Trance,  2  2
27 142 bpm, 10B / D major, 2016-06-13, Psy-Trance,  1  10
28 142 bpm, 1A / Ab minor, 2016-05-30, Psy-Trance,  5  2
29 142 bpm, 1B / B major, 2016-05-30, Psy-Trance,  2  2
30 138 bpm, 11A / F# minor, 2016-03-04, Psy-Trance,  1  18
31 140 bpm, 7B / F major, 2016-02-29, Psy-Trance,  0  14
32 142 bpm, 2B / F# major, 2015-12-28, Psy-Trance,  0  12
33 145 bpm, 6A / G minor, 2015-12-28, Psy-Trance,  0  20
34 138 bpm, 11A / F# minor, 2015-10-26, Psy-Trance,  10  1
35 140 bpm, 11A / F# minor, 2015-10-26, Psy-Trance,  2  3
36 140 bpm, 7B / F major, 2015-10-12, Psy-Trance,  1  2
37 142 bpm, 11B / A major, 2015-10-12, Psy-Trance,  2  2
38 140 bpm, 9B / G major, 2015-09-14, Psy-Trance,  0  9
39 142 bpm, 2B / F# major, 2015-07-06, Psy-Trance,  5  2
40 142 bpm, 2B / F# major, 2015-07-06, Psy-Trance,  3  2
41 142 bpm, 2B / F# major, 2015-06-22, Psy-Trance,  0  46
42 145 bpm, 6A / G minor, 2015-06-22, Psy-Trance,  0  9
43 142 bpm, 11B / A major, 2015-05-25, Psy-Trance,  0  8
44 140 bpm, 2B / F# major, 2015-02-25, Psy-Trance,  1  2
45 139 bpm, 12B / E major, 2015-02-25, Psy-Trance,  1  2
46 145 bpm, 3A / Bb minor, 2014-10-06, Psy-Trance,  1  2
47 143 bpm, 7B / F major, 2014-09-22, Psy-Trance,  1  9
48 142 bpm, 10A / B minor, 2014-09-22, Psy-Trance,  0  9
49 140 bpm, 7B / F major, 2014-09-22, Psy-Trance,  2  9
50 146 bpm, 9A / E minor, 2014-09-22, Psy-Trance,  1  9
51 145 bpm, 5A / C minor, 2014-09-22, Psy-Trance,  1  9
52 144 bpm, 4B / Ab major, 2014-09-22, Psy-Trance,  6  9
53 144 bpm, 12B / E major, 2014-09-22, Psy-Trance,  1  9
54 140 bpm, 9A / E minor, 2014-09-22, Psy-Trance,  1  9
55 140 bpm, 8A / A minor, 2014-09-22, Psy-Trance,  1  9
56 143 bpm, 7B / F major, 2014-09-08, Psy-Trance,  0  2
57 140 bpm, 8A / A minor, 2014-09-08, Psy-Trance,  1  2
58 142 bpm, 11B / A major, 2014-06-04, Psy-Trance,  1  3
59 140 bpm, 9A / E minor, 2014-03-03, Psy-Trance,  2  11
60 93 bpm, 9B / G major, 2014-02-26, Psy-Trance,  0  3
61 142 bpm, 7B / F major, 2014-02-26, Psy-Trance,  1  3
62 139 bpm, 7A / D minor, 2014-02-26, Psy-Trance,  3  3
63 143 bpm, 8A / A minor, 2013-11-04, Psy-Trance,  2  1
64 145 bpm, 8A / A minor, 2013-10-23, Psy-Trance,  0  11
65 140 bpm, 8A / A minor, 2013-09-16, Psy-Trance,  1  4
66 140 bpm, 1A / Ab minor, 2013-09-16, Psy-Trance,  1  4
67 138 bpm, 9B / G major, 2013-09-16, Psy-Trance,  0  4
68 137 bpm, 9B / G major, 2013-09-16, Psy-Trance,  2  4
69 143 bpm, 8A / A minor, 2013-09-11, Psy-Trance,  0  9
70 145 bpm, 9A / E minor, 2013-09-11, Psy-Trance,  0  9
71 144 bpm, 9A / E minor, 2013-09-11, Psy-Trance,  0  9
72 145 bpm, 6A / G minor, 2013-09-11, Psy-Trance,  0  9
73 146 bpm, 8A / A minor, 2013-09-11, Psy-Trance,  0  9
74 145 bpm, 8A / A minor, 2013-09-11, Psy-Trance,  0  9
75 145 bpm, 8A / A minor, 2013-09-11, Psy-Trance,  0  9
76 145 bpm, 3A / Bb minor, 2013-09-11, Psy-Trance,  0  9
77 145 bpm, 7B / F major, 2013-09-11, Psy-Trance,  0  9
78 146 bpm, 8A / A minor, 2013-08-07, Psy-Trance,  0  9
79 145 bpm, 5A / C minor, 2013-07-24, Psy-Trance,  0  10
80 135 bpm, 11B / A major, 2013-06-17, Psy-Trance,  1  18
81 135 bpm, 11B / A major, 2012-12-13, Psy-Trance,  0  20
82 144 bpm, 8A / A minor, 2012-09-14, Psy-Trance,  0  10
83 142 bpm, 11B / A major, 2012-09-05, Psy-Trance,  1  3
84 145 bpm, 8A / A minor, 2012-08-15, Psy-Trance,  2  1
85 142 bpm, 8A / A minor, 2012-06-15, Psy-Trance,  0  3
86 145 bpm, 8A / A minor, 2012-03-09, Psy-Trance,  1  10
87 145 bpm, 8A / A minor, 2012-01-18, Psy-Trance,  0  9
88 145 bpm, 11B / A major, 2012-01-17, Psy-Trance,  0  10
89 145 bpm, 11B / A major, 2012-01-10, Psy-Trance,  0  9
90 146 bpm, 10A / B minor, 2011-12-23, Psy-Trance,  1  9
91 144 bpm, 5A / C minor, 2011-12-21, Psy-Trance,  0  8
92 142 bpm, 4A / F minor, 2011-12-21, Psy-Trance,  0  9
93 146 bpm, 4A / F minor, 2011-12-07, Psy-Trance,  0  9
94 145 bpm, 8A / A minor, 2011-11-18, Psy-Trance,  0  10
95 144 bpm, 8A / A minor, 2011-10-26, Psy-Trance,  1  9
96 145 bpm, 8A / A minor, 2011-07-06, Psy-Trance,  0  11
97 143 bpm, 8A / A minor, 2011-04-13, Psy-Trance,  0  9
98 145 bpm, 9A / E minor, 2011-04-13, Psy-Trance,  0  9
99 144 bpm, 9A / E minor, 2011-04-13, Psy-Trance,  0  9
100 145 bpm, 6A / G minor, 2011-04-13, Psy-Trance,  0  9
×

Sign in

Sign in to access your personalized pages, follow artists and labels you love, and create playlists fromyour favorite tracks.

Please wait...